TimeCST,TemperatureF,Dew PointF,Humidity,Sea Level PressureIn,VisibilityMPH,Wind Direction,Wind SpeedMPH,Gust SpeedMPH,PrecipitationIn,Events,Conditions,WindDirDegrees,DateUTC
12:53 AM,7.0,3.9,87,30.16,5.0,Calm,Calm,-,N/A,,Clear,0,2013-01-05 06:53:00
1:53 AM,5.0,1.0,84,30.16,5.0,South,6.9,-,N/A,,Clear,180,2013-01-05 07:53:00
2:53 AM,9.0,6.1,88,30.14,4.0,South,12.7,-,N/A,,Clear,180,2013-01-05 08:53:00
3:53 AM,9.0,6.1,88,30.11,4.0,South,10.4,-,N/A,,Clear,180,2013-01-05 09:53:00
4:53 AM,9.0,5.0,84,30.11,5.0,South,6.9,-,N/A,,Clear,180,2013-01-05 10:53:00
5:53 AM,8.1,3.9,83,30.09,4.0,South,8.1,-,N/A,,Clear,170,2013-01-05 11:53:00
6:53 AM,9.0,5.0,84,30.08,5.0,SSW,3.5,-,N/A,,Clear,200,2013-01-05 12:53:00
7:53 AM,10.9,6.1,81,30.06,4.0,South,8.1,-,N/A,,Haze,180,2013-01-05 13:53:00
8:53 AM,10.9,7.0,84,30.08,4.0,South,8.1,-,N/A,,Clear,170,2013-01-05 14:53:00
9:53 AM,17.1,14.0,88,30.07,5.0,South,4.6,-,N/A,,Clear,190,2013-01-05 15:53:00
10:53 AM,25.0,18.0,75,30.03,9.0,SW,19.6,24.2,N/A,,Clear,230,2013-01-05 16:53:00
11:53 AM,26.1,19.0,75,29.98,9.0,SSW,12.7,20.7,N/A,,Clear,210,2013-01-05 17:53:00
12:53 PM,27.0,19.9,75,29.95,8.0,SW,16.1,25.3,N/A,,Clear,220,2013-01-05 18:53:00
1:53 PM,28.0,21.0,75,29.94,9.0,SW,13.8,-,N/A,,Partly Cloudy,230,2013-01-05 19:53:00
2:53 PM,27.0,19.0,72,29.92,8.0,WSW,17.3,-,N/A,,Clear,240,2013-01-05 20:53:00
3:53 PM,25.0,18.0,75,29.94,7.0,WSW,12.7,-,N/A,,Clear,240,2013-01-05 21:53:00
4:53 PM,23.0,16.0,74,29.96,7.0,West,12.7,-,N/A,,Clear,260,2013-01-05 22:53:00
5:53 PM,21.0,15.1,78,29.98,8.0,West,10.4,-,N/A,,Clear,260,2013-01-05 23:53:00
6:53 PM,19.0,12.9,77,29.99,8.0,West,12.7,-,N/A,,Clear,280,2013-01-06 00:53:00
7:53 PM,19.9,12.0,71,30.02,10.0,WNW,13.8,-,N/A,,Clear,300,2013-01-06 01:53:00
8:53 PM,18.0,12.0,78,30.03,10.0,WNW,15.0,-,N/A,,Clear,300,2013-01-06 02:53:00
9:35 PM,17.6,10.4,73,30.00,6.0,WNW,24.2,28.8,N/A,,Haze,300,2013-01-06 03:35:00
9:53 PM,15.1,10.0,80,30.06,3.0,NW,19.6,-,N/A,,Haze,310,2013-01-06 03:53:00
10:07 PM,14.0,8.6,79,30.00,5.0,NW,18.4,26.5,N/A,,Haze,310,2013-01-06 04:07:00
10:35 PM,12.2,6.8,79,30.00,9.0,WNW,15.0,-,N/A,,Partly Cloudy,300,2013-01-06 04:35:00
10:53 PM,12.0,6.1,77,30.06,9.0,NW,16.1,-,N/A,,Clear,310,2013-01-06 04:53:00
11:01 PM,12.2,6.8,79,30.03,7.0,WNW,17.3,-,N/A,,Scattered Clouds,300,2013-01-06 05:01:00
11:08 PM,12.2,6.8,79,30.03,5.0,WNW,20.7,-,N/A,,Haze,300,2013-01-06 05:08:00
11:53 PM,10.9,6.1,81,30.09,6.0,NW,16.1,-,N/A,,Haze,310,2013-01-06 05:53:00